Regional Weather Roundup
Issued by NWS

Home | Current Version | Previous Version | Graphics & Text | Print | Product List | Glossary On
Versions: 1 2 3 4 5 6 7 8 9 10 11 12 13 14 15 16 17 18 19 20 21 22 23 24 25 26 27 28 29 30 31 32 33 34 35 36 37 38 39 40 41 42 43 44 45 46 47 48 49 50
000
ASUS43 KLOT 292306
RWRIL

ILLINOIS REGIONAL WEATHER ROUNDUP
NATIONAL WEATHER SERVICE CHICAGO/ROMEOVILLE IL
600 PM CDT FRI AUG 29 2014

NOTE: "FAIR" INDICATES FEW OR NO CLOUDS BELOW 12,000 FEET WITH NO
SIGNIFICANT WEATHER AND/OR OBSTRUCTIONS TO VISIBILITY.

* THESE STATIONS ARE NOT UNDER NWS QUALITY CONTROL. THEY ALSO MAY NOT
  REPORT WEATHER SUCH AS PRECIPITATION OR FOG.

ILZ001-002-007-009-015-016-024-300000-
NORTHWEST ILLINOIS

CITY           SKY/WX    TMP DP  RH WIND       PRES   REMARKS
MOLINE         MOSUNNY   82  71  69 S6        29.81F HX  86
STERLING*      SUNNY     84  72  65 S7        29.84F HX  89
SAVANNA*       SUNNY     86  69  58 S12       29.81F HX  90
$$

ILZ003-004-008-010-011-017-018-300000-
NORTH CENTRAL ILLINOIS

CITY           SKY/WX    TMP DP  RH WIND       PRES   REMARKS
ROCKFORD       MOSUNNY   83  71  67 S13       29.87S HX  87
FREEPORT*      SUNNY     83  74  73 S13       29.86F HX  89
ROCHELLE*      SUNNY     83  70  66 S9        29.86F HX  87
DE KALB*       MOSUNNY   81  71  71 S9        29.89S HX  84
PERU*          SUNNY     84  71  63 S7        29.86F HX  89
$$

ILZ005-006-012>014-019>023-300000-
NORTHEAST ILLINOIS

CITY           SKY/WX    TMP DP  RH WIND       PRES   REMARKS
CHICAGO-OHARE  PTSUNNY   84  68  58 S16       29.88S HX  87
CHICAGO-MIDWAY PTSUNNY   84  74  71 SE14G21   29.89S HX  91
AURORA         MOSUNNY   84  72  67 SE14      29.89R HX  89
LANSING*         N/A    N/A N/A N/A MISG        N/A
JOLIET*        PTSUNNY   82  71  70 SE7       29.90S HX  85
WAUKEGAN       MOSUNNY   78  70  76 SE13G22   29.87F HX  80
DUPAGE AIRPORT MOSUNNY   84  71  65 S10       29.88S HX  89
KANKAKEE*      MOSUNNY   79  71  77 SE7       29.92S HX  82
WHEELING       MOSUNNY   86  70  58 S14       29.89S HX  90
MORRIS*        MOSUNNY   82  74  79 SE7       29.88F HX  87
ROMEOVILLE*    PTSUNNY   81  72  74 SE13      29.89S HX  84
NORTHERLY ISL    N/A     76  70  82 SE6         N/A
$$

LMZ740>746-300000-
SOUTHERN LAKE MICHIGAN

STATION/POSITION SKY/WX   TEMP    WIND        PRES    VSBY  WAVE
                          AIR SEA DIR/SP/G                  HT/PER
                          (F)     (DEG/KT/KT) (MB)    (MI)  (FT/S)
SOUTHERN BUOY              71 69  150/ 14/ 16 1012.2F         2/ 4
WAUKEGAN HARBOR            76     150/ 16/ 22   N/A
HARRISON CRIB              76     140/ 17/ 18   N/A
BURNHAM HARBOR             76     140/  6/ 13   N/A
CALUMET HARBOR             79     110/  6/  9 1011.5F
MICHIGAN CITY              78     120/  8/ 11   N/A
MICHIGAN CITY 6N           75 72  140/  8/ 10   N/A           1/ 2
ST. JOSEPH                 75 71  150/ 10/ 14   N/A           1/ 3
$$

ILZ025>027-034>036-040-047-049-050-058-095>099-300000-
WEST-CENTRAL ILLINOIS

CITY           SKY/WX    TMP DP  RH WIND       PRES   REMARKS
QUINCY         LGT RAIN  73  70  90 S9        29.84F
GALESBURG*     MOSUNNY   82  71  69 S5        29.83S HX  87
MACOMB*        PTSUNNY   81  71  71 SE10      29.85S HX  84
JACKSONVILLE*  SUNNY     87  68  52 S8G17     29.85S HX  90
PITTSFIELD*    RAIN      80  69  70 W17G23    29.86R HX  83
$$

ILZ028>032-037-038-041>044-048-051>054-059>061-300000-
CENTRAL ILLINOIS

CITY           SKY/WX    TMP DP  RH WIND       PRES   REMARKS
PONTIAC        SUNNY     82  75  78 SE5       29.88S HX  89
DECATUR        SUNNY     86  69  56 S10       29.88F HX  90
PEORIA         PTSUNNY   77  70  79 SE5       29.85F
LACON*         MOSUNNY   81  72  73 S3        29.85S THUNDER HX  86
LINCOLN*       MOSUNNY   86  69  55 S8        29.83S HX  90
SPRINGFIELD    MOSUNNY   86  70  58 S13       29.85F HX  90
TAYLORVILLE    SUNNY     82  70  65 S9        29.87S HX  86
$$

ILZ033-039-045-046-055>057-062-063-300000-
EAST-CENTRAL ILLINOIS

CITY           SKY/WX    TMP DP  RH WIND       PRES   REMARKS
CHAMPAIGN      SUNNY     85  72  65 S7        29.90F HX  91
DANVILLE*      RAIN      75  71  88 E3        29.91R
RANTOUL*       SUNNY     86  71  59 S6        29.91S HX  91
MATTOON        MOSUNNY   85  69  58 S9        29.90F HX  89
PARIS*         PTSUNNY   80  74  82 SE13      29.95R HX  85
$$

ILZ079-100>102-300000-
SOUTHWEST ILLINOIS

CITY           SKY/WX    TMP DP  RH WIND       PRES   REMARKS
BELLEVILLE     SUNNY     87  71  59 E5        29.86S HX  92
CAHOKIA*       MOSUNNY   86  67  52 SE7       29.85S HX  89
SPARTA*        SUNNY     85  67  55 S9        29.90R HX  88
$$

ILZ064>066-069>071-074>076-080>082-084>086-088>090-092>094-300000-
SOUTH-CENTRAL ILLINOIS

CITY           SKY/WX    TMP DP  RH WIND       PRES   REMARKS
CARBONDALE     SUNNY     86  65  49 S13       29.90S HX  88
CAIRO*         MOSUNNY   85  68  56 SW12G20   29.93R HX  88
EFFINGHAM*     SUNNY     86  63  46 S7        29.90S HX  87
MARION         SUNNY     90  68  48 S12       29.92S HX  93
MT. VERNON     SUNNY     88  70  55 S7        29.91S HX  92
CENTRALIA*     SUNNY     84  68  58 S9        29.90S HX  87
SALEM*         SUNNY     87  70  56 S8        29.90S HX  91
METROPOLIS*    SUNNY     87  66  49 S6        29.92R HX  90
$$

ILZ067-068-072-073-078-083-087-091-300000-
SOUTHEAST ILLINOIS

CITY           SKY/WX    TMP DP  RH WIND       PRES   REMARKS
LAWRENCEVILLE  SUNNY     86  73  65 SE8       29.92S HX  93
FLORA*         SUNNY     85  69  57 S7        29.91F HX  89
FAIRFIELD*     SUNNY     88  73  62 S6        29.91S HX  96
HARRISBURG*    SUNNY     87  67  51 S8        29.93S HX  90
ROBINSON*      MOSUNNY   85  74  71 SE6       29.93S HX  92
CARMI*         SUNNY     89  70  53 S6        29.92R HX  94
$$

ABBREVIATIONS USED IN REMARKS
   TC - TEMPERATURE IN CELSIUS
  WCI - WIND CHILL INDEX
   HX - HEAT INDEX
  VSB - VISIBILITY
$$



USA.gov is the U.S. government's official web portal to all federal, state and local government web resources and services.